Погода в Ракитине

Россия / Тульская область     53°48′28″N   38°27′59″E
темп.,
°C
ветер,
м/с
пор.,
м/с
влажн.,
%
обл.,
%
осадки,
мм/ч
давл.,
гПа
погр.,
м
14 апреля, ср
ср1400:00+12юв5135722 0.0 1022273
03:00+10ююв3774100 0.0 1022110
06:00+9ююв3385100 0.0 102139
09:00+12юв4664100 0.0 1021239
12:00+17юв5838100 0.0 1019665
15:00+19юв572782 0.0 10181707
18:00+18юв473453 0.0 1017205
21:00+14юв334499 0.0 101723
15 апреля, чт
чт1500:00+12юв3453100 0.0 101763
03:00+11юв345995 0.0 101754
06:00+9юв3465100 0.0 101762
09:00+13в3453100 0.0 1016190
12:00+16в4540100 0.0 1015693
15:00+18в4638100 0.0 10141570
18:00+16всв3650100 0.0 1014223
21:00+13всв5116755 0.6 1014280
16 апреля, пт
пт1600:00+10св357876 0.1 101582
03:00+9всв3685100 0.1 1015122
06:00+9всв4784100 0.0 1016185
09:00+12всв5770100 0.0 1017296
12:00+15в5660100 0.3 1018874
15:00+17в6851100 0.3 10171533
18:00+17в71156100 1.3 1017596
21:00+12в3683100 5.4 1020233
17 апреля, сб
сб1700:00+11в6138391 3.9 1020506
03:00+9всв61290100 4.3 1021451
06:00+8всв61288100 0.3 1022467
09:00+9всв81277100 0.3 1023609
12:00+11всв91257100 0.1 1024884
15:00+13всв8115082 0.2 10231247
18:00+12всв812494 0.0 10241105
21:00+9всв816512 0.0 1025600
18 апреля, вс
вс1800:00+7всв8155974 0.0 1026505
03:00+6всв61362100 0.0 1026517
06:00+6всв6126582 0.1 1027508
09:00+7в5106394 0.6 1028610
12:00+10вюв6850100 0.0 10281242
15:00+12вюв6846100 0.1 10271601
18:00+11ююв3560100 0.0 1027267
21:00+8с3476100 0.0 1028129